Погода в Тушне

Россия / Ульяновская область     54°01′21″N   48°31′09″E
темп.,
°C
ветер,
м/с
пор.,
м/с
влажн.,
%
обл.,
%
осадки,
мм/ч
давл.,
гПа
погр.,
м
7 мая, пт
пт701:00+10ююз41072100 0.0 1016167
04:00+10ю4970100 0.0 1016160
07:00+11ю41166100 0.0 1016276
10:00+15ю61051100 0.0 10151029
13:00+17ю81041100 0.0 10151794
16:00+17ю7942100 0.0 10141995
19:00+15ю51051100 0.0 1013525
22:00+11сз2489100 0.3 1016206
8 мая, сб
сб801:00+10юз1294100 0.2 1017132
04:00+9с2297100 1.8 1017109
07:00+8с2297100 0.8 1018133
10:00+12вюв248366 0.8 1017583
13:00+16ююв356190 0.5 10161264
16:00+17ююв3653100 0.6 10151395
19:00+15юв510637 0.0 1014418
22:00+12юв4126915 0.0 1013261
9 мая, вс
вс901:00+11ююв377381 0.0 1013120
04:00+10ю377494 0.0 1013120
07:00+12ю3107483 0.0 1013267
10:00+17ю5853100 0.0 1013658
13:00+19ююз574798 0.0 10131388
16:00+19юз4551100 0.1 10131437
19:00+13сз3689100 0.8 1015353
22:00+11ссз5898100 6.5 1017291
10 мая, пн
пн1001:00+9ссв5998100 6.0 1018270
04:00+8ссз5997100 6.6 1022413
07:00+7с5996100 0.2 1024394
10:00+7с61093100 0.3 1026452
13:00+9с6982100 0.0 1027496
16:00+9ссв5983100 0.0 1028454
19:00+10ссв497967 0.0 1028494
22:00+6ссв37935 0.1 1029169
11 мая, вт
вт1101:00+7ссв310845 0.0 1030201
04:00+5св39834 0.0 1031177
07:00+7св39805 0.0 1032266
10:00+12всв57629 0.0 1032643
13:00+15всв56481 0.0 1032961
16:00+16всв46462 0.0 1030983
19:00+14всв26645 0.0 1030179
22:00+10в237570 0.0 103132